STARLINK-5932, 55943

Orbit data source: Space-Track

STARLINK-5932, 55943 is a payload satellite owned by SpaceX/Seattle (US) in LEO that was launched on Fri, 17 Mar 2023 UTC via an FALCON 9 launch vehicle from the Air Force Western Test Range (AFWTR). Payload-class satellites include a variety of spacecraft equipped with specific instruments for various scientific and technological missions. These include communications satellites like Starlink; space stations such as the ISS; scientific satellites like the Hubble; Earth observation satellites from companies like Planet Labs, Umbra, and HawkEye 360; GPS; miniature CubeSats for education and research; and military/defense satellites.

Loading next visibility...
Identifier
55943, 2023-037AF
Orbit
LEO
Country
Flag of USUS
Related business
Manufacturer
SpaceX/Seattle
Mission
Operational Commercial Communications
Bus & Motor
STARLINK, Unknown motor
Mass
305 kg wet, ~290 kg dry
Launch date (UTC)
2023-03-17 (3 years ago)
Launch vehicle
FALCON 9
Launch site
Air Force Western Test Range (AFWTR)
Object type
Payload
Rocket body
Debris
Shape & HBR
Box + 1 Pan, 10.1 m
Radar Cross Section
11.087 m², Large (>1 m²)

Expand to show TLE details & history
Last TLE update: 8 hours ago

TLE from 8 hours ago
0 STARLINK-5932
1 55943U 23037AF  25349.84453434 -.00000097  00000-0 -36746-6 0  9999
2 55943  69.9993 135.7435 0003108 268.1382  91.9421 14.98333204151429
Epoch: 2025-12-15T20:16Z
TLE epoch observation values (Epoch: 2025-12-15T20:16:07.766Z)
Latitude
-0.00006°
Longitude
106.97385°
Altitude
574.544 km
Speed
7.574 km/s
True Right ascension
09h 02m 58s
True Declination
0° 00' 00"
Sunlit
Object was in full shadow at epoch
Visualization orbit readout
Latitude
Unknown
Longitude
Unknown
Altitude
Unknown
Speed
Unknown
Apparent Right ascension
Unknown
Apparent Declination
Unknown
Sunlit
N/A
Visualization observer readout
Local Sidereal Time
03:10:34
Azimuth
Unknown
Elevation
Unknown
Doppler factor
Unknown
Orbital elements
Apogee altitude
572.154 km
Perigee altitude
567.835 km
Semi-major axis
6,948.131 km
Eccentricity
0.00031
Inclination
69.9993°
RAAN
135.7435°
Arg. of periapsis
268.1382°
True anomaly
91.97769°
Mean anomaly
91.9421°
Eccentric anomaly
91.9599°
Mean motion
3.7475 °/min
Orbital period
96.06 mins
BSTAR
-3.6746e-7
Loading maneuver chart data...
Computing Atmospheric mass density...
Loading historical data...
Loading historical data...
Loading historical data...
Loading historical data...
Loading historical data...
Loading historical data...
Loading historical data...

Documentation

Showing up to 5 results
|